SCP
1 0 0 0 0 0 0 0 0 0 0 0 0 0 0 0 0 0 0 0 0 0 0 0 1 1 1 1 1 1 1 1 1 1 1 1 1 1 1 1 1 1 1 1 1 1 1 0 0
1 0 0 0 0 0 0 0 0 0 0 0 0 0 0 0 0 0 0 0 0 0 0 1 1 1 1 1 1 1 1 1 1 1 1 1 1 1 1 1 1 1 1 1 1 1 1 0 0
1 0 0 0 0 0 0 0 0 0 0 0 0 0 0 0 0 0 0 0 0 0 0 1 1 1 1 1 1 1 1 1 1 1 1 1 1 1 1 1 1 1 1 1 1 1 1 1 0
0 0 0 0 0 0 0 0 0 0 0 0 0 0 0 0 0 0 0 1 1 1 1 1 1 1 1 1 1 1 1 1 1 1 1 1 1 1 1 1 1 1 1 1 0 1 1 1 0
0 0 0 0 0 0 0 0 0 0 0 0 0 0 0 0 0 0 1 1 1 1 1 1 1 1 1 1 1 1 1 1 1 1 1 1 2 1 1 1 1 1 1 1 1 1 1 0 0
0 0 0 0 0 0 0 0 0 0 0 0 0 0 0 0 0 1 1 1 1 1 1 1 1 1 1 1 1 1 1 1 1 1 1 2 2 2 2 1 1 1 1 1 1 1 1 1 0
0 0 0 0 0 0 0 0 0 0 0 0 0 0 0 0 1 1 1 1 2 2 2 1 1 1 1 1 1 1 1 1 1 1 2 2 2 2 2 2 2 2 1 1 1 1 1 1 1
0 0 0 0 0 0 0 0 0 0 0 0 0 0 0 1 1 2 2 2 2 2 2 1 1 1 1 1 1 1 1 1 1 1 2 2 2 2 2 2 2 2 2 1 1 1 1 1 1
0 0 0 0 0 0 0 0 0 0 0 0 0 0 0 1 2 2 2 2 2 2 2 1 1 1 1 0 0 0 1 1 1 1 1 1 1 1 1 1 2 2 1 1 1 1 1 1 1
0 0 0 0 0 0 0 0 0 0 0 0 0 0 1 1 2 2 2 2 2 2 1 1 1 1 1 0 0 0 0 0 0 1 1 1 1 1 1 1 1 1 1 1 1 1 1 1 1
0 0 0 0 0 0 0 0 0 0 0 0 0 0 1 1 2 2 2 2 2 1 1 1 1 1 1 1 0 0 0 0 0 0 0 1 1 1 1 1 1 1 1 1 1 1 1 1 1
0 0 0 0 0 0 0 0 0 0 0 0 0 0 1 1 1 1 1 1 1 1 1 1 1 1 1 0 0 0 0 0 0 0 0 0 0 0 0 1 1 1 1 1 1 1 1 1 1
0 0 0 0 0 0 0 0 0 0 0 0 0 0 1 1 1 1 1 1 1 0 0 0 0 0 0 0 0 0 0 0 0 0 0 0 0 0 0 0 0 0 0 1 1 1 1 1 1
0 1 1 1 0 0 0 0 0 0 0 0 0 0 0 1 1 0 0 0 0 0 0 0 0 0 0 0 0 0 0 0 0 0 0 0 0 0 0 0 0 0 0 0 1 1 1 1 1
1 1 1 0 0 0 0 0 0 0 0 0 0 0 0 0 0 0 0 0 0 0 0 0 0 0 0 0 0 0 0 0 0 0 0 0 0 0 0 0 0 0 0 0 1 1 1 1 1
1 1 0 0 0 0 0 0 0 0 0 0 0 0 0 0 0 0 0 0 0 0 0 0 0 0 0 0 0 0 0 0 0 0 0 0 0 0 0 0 0 0 0 0 0 0 1 1 1
1 0 0 0 0 0 0 0 0 0 0 0 0 0 0 0 0 0 0 0 0 0 0 0 0 0 0 0 0 0 0 0 0 0 0 0 0 0 0 0 0 0 0 0 0 0 1 1 1
0 0 0 0 0 0 0 0 0 0 0 0 0 0 0 0 0 0 0 0 0 0 0 0 0 0 0 0 0 0 0 0 0 0 0 0 0 0 0 0 0 0 0 0 0 0 1 1 1
0 0 0 0 0 0 0 0 0 0 0 0 0 0 0 0 0 0 0 0 0 0 0 0 0 0 0 0 0 0 0 0 0 0 0 0 0 0 0 0 0 0 0 0 0 0 1 1 1
0 0 0 0 0 0 0 0 0 0 0 0 0 0 0 0 0 0 0 0 0 0 0 0 0 0 0 0 0 0 0 0 0 0 0 0 0 0 0 0 0 0 0 0 0 0 0 1 0
0 0 0 0 0 0 0 0 0 0 0 0 0 0 0 0 0 0 0 0 0 0 0 0 0 0 0 0 0 0 0 0 0 0 0 0 0 0 0 0 0 0 0 0 0 0 0 0 0
0 0 0 0 0 0 0 0 0 0 0 0 0 0 0 0 0 0 0 0 0 0 0 0 0 0 0 0 0 0 0 0 0 0 0 0 0 0 0 0 0 0 0 0 0 0 0 0 0
0 0 0 0 0 0 0 0 0 0 0 0 0 0 0 0 0 0 0 0 0 0 0 0 0 0 0 0 0 0 0 0 0 0 0 0 0 0 0 0 0 0 0 0 0 0 0 0 0
0 0 0 0 0 0 0 0 0 0 0 0 0 0 0 0 0 0 0 0 0 0 0 0 0 0 0 0 0 0 0 0 0 0 0 0 0 0 0 0 0 0 0 0 0 0 0 0 0
0 0 0 0 0 0 0 0 0 0 0 0 0 0 0 0 0 0 0 0 0 0 0 0 0 0 0 0 0 0 0 0 0 0 0 0 0 0 0 0 0 0 0 0 0 0 0 0 0
0 0 0 0 0 0 0 0 0 0 0 0 0 0 0 0 0 0 0 0 0 0 0 0 0 0 0 0 0 0 0 0 0 0 0 0 0 0 0 0 0 0 0 0 0 0 0 0 0
0 0 0 0 0 0 0 0 0 0 -0 0 0 0 0 0 0 0 0 0 0 0 0 0 0 0 0 0 0 0 0 0 0 0 0 0 0 0 0 0 0 0 0 0 0 0 0 0 0
0 0 0 0 0 0 0 0 0 0 -0 0 0 0 0 0 0 0 0 0 0 0 0 0 0 0 0 0 0 0 0 0 0 0 0 0 0 0 0 0 0 0 0 0 0 0 0 0 0
0 0 0 0 0 0 0 0 0 0 -0 -0 0 0 0 0 0 0 0 0 0 0 0 0 0 0 0 0 0 0 0 0 0 0 0 0 0 0 0 0 0 0 0 0 0 0 0 0 0
0 0 0 0 0 0 0 0 0 -0 -0 -0 0 0 0 0 0 0 0 0 0 0 0 0 0 0 0 0 0 0 0 0 0 0 0 0 0 0 0 0 0 0 0 0 0 0 0 0 0
Wind_Speed
3 5 3 3 4 3 1 2 2 2 2 2 4 6 6 4 2 1 1 1 3 3 3 4 6 5 5 5 4 4 4 3 4 4 5 5 5 5 5 5 5 4 3 3 2 1 1 1 1
5 4 4 3 3 1 2 2 1 1 2 2 4 4 5 4 2 2 2 2 3 4 3 3 5 5 4 4 4 4 4 4 5 5 6 6 6 6 6 6 6 5 5 4 4 3 2 1 1
5 4 3 2 1 2 2 2 0 2 3 2 3 4 3 2 2 1 0 3 4 2 1 1 3 3 2 3 3 4 4 5 6 6 7 7 7 7 7 7 7 7 6 6 5 5 4 3 2
4 3 3 2 0 2 2 1 0 2 3 4 3 4 2 2 1 1 2 4 4 2 1 0 1 2 2 3 3 4 5 5 6 6 7 8 8 8 8 8 8 8 8 7 7 6 6 5 4
3 3 2 1 1 2 1 1 1 1 2 2 3 3 2 2 2 4 4 4 3 2 1 1 1 2 2 3 4 4 5 6 7 7 8 7 8 8 9 9 9 9 9 9 8 7 7 7 6
3 3 3 1 2 1 1 1 1 2 2 2 3 3 1 1 2 3 4 3 3 2 1 1 3 2 3 4 4 5 5 6 7 8 8 8 8 8 9 10 10 10 10 10 9 8 9 8 7
3 3 2 2 1 1 1 1 3 3 2 2 4 4 1 1 1 3 4 3 2 1 1 2 2 3 4 5 5 6 7 7 7 8 8 8 7 8 8 9 9 10 10 10 10 9 9 9 8
3 3 1 1 1 2 1 2 2 3 2 2 4 6 4 4 4 4 4 3 2 2 2 2 2 3 3 4 6 7 7 7 8 8 8 7 7 7 8 8 9 10 9 9 9 9 10 10 9
3 3 1 3 3 3 2 2 1 2 4 1 1 3 4 6 6 5 3 2 1 1 2 2 2 2 3 3 4 5 7 8 8 7 8 6 3 3 4 6 8 8 8 8 8 8 9 9 8
3 3 5 3 3 3 1 3 4 3 2 1 2 2 5 6 6 5 4 3 1 0 1 1 2 2 2 2 3 3 3 4 4 3 4 2 2 3 4 6 8 7 7 7 7 8 7 6 3
3 4 3 2 3 2 1 2 3 6 3 6 7 7 6 5 5 5 4 3 2 1 0 1 1 1 2 2 2 2 2 2 3 4 3 2 2 2 2 2 3 4 5 3 4 4 2 2 2
2 3 2 2 2 2 2 3 3 5 6 5 7 9 7 7 6 6 5 3 2 1 1 1 1 1 1 1 2 2 2 2 2 3 3 2 2 2 2 2 2 2 2 2 2 2 2 2 3
3 2 1 1 1 1 2 2 3 5 3 4 7 7 8 7 5 4 3 3 2 2 1 1 1 0 1 1 2 2 2 2 2 2 3 2 1 2 2 2 2 2 2 2 2 2 2 2 2
2 0 1 1 0 0 2 1 2 5 3 6 7 7 7 7 6 4 4 3 3 3 2 1 1 0 1 1 1 1 2 2 2 2 3 2 1 1 2 2 2 2 2 2 2 2 2 2 2
2 2 2 1 1 1 2 3 6 4 6 6 6 6 6 5 5 5 5 5 4 3 2 1 1 0 1 1 2 2 2 2 2 2 3 3 2 1 1 2 2 2 2 2 2 2 1 1 1
2 2 1 3 2 2 3 6 6 4 7 7 6 5 5 5 5 4 4 4 3 2 1 1 1 1 2 2 2 2 2 2 2 2 2 3 2 2 1 1 2 3 2 1 1 1 1 1 1
1 1 3 3 3 3 4 7 3 4 7 7 6 5 5 4 4 4 4 4 3 3 1 1 1 1 2 2 2 2 2 2 2 2 2 3 3 2 1 1 2 2 1 1 1 0 0 1 1
5 4 3 4 3 5 5 7 5 3 6 7 6 5 5 6 6 5 4 3 3 2 1 0 1 2 2 2 2 2 2 2 2 2 2 3 2 3 2 2 2 1 1 1 1 1 1 1 1
4 4 4 4 3 5 6 7 7 3 5 6 6 6 6 6 4 3 3 3 2 1 0 1 1 2 1 1 2 2 2 3 3 3 3 3 3 3 2 2 2 1 1 1 1 1 1 1 0
3 3 3 3 1 4 3 6 5 4 6 7 8 8 7 5 3 4 3 3 2 2 1 1 1 1 1 1 1 1 2 2 3 3 3 3 3 3 2 2 2 1 1 1 1 0 0 1 0
4 5 4 2 1 2 2 6 4 2 2 3 4 5 6 7 7 6 4 4 3 3 3 2 2 2 2 2 1 2 2 2 3 3 3 4 4 4 3 2 2 2 1 1 2 1 1 1 1
4 4 4 3 2 2 1 4 7 3 3 3 4 5 6 6 6 5 5 4 4 4 3 2 2 2 2 1 1 1 1 2 3 3 3 5 4 4 3 3 2 2 1 2 2 1 2 2 1
3 2 3 2 3 1 1 1 8 2 4 5 5 6 6 6 6 6 6 6 4 3 2 2 2 2 2 1 1 1 1 2 3 3 4 4 4 4 4 3 2 2 1 2 2 1 2 2 2
5 6 6 5 4 1 2 3 7 4 6 4 4 6 6 6 5 5 4 3 3 2 2 2 2 3 2 2 1 1 2 3 4 4 4 4 4 4 4 3 2 2 2 2 2 2 2 2 2
4 6 4 4 4 5 2 2 9 6 6 5 6 7 6 6 6 5 5 5 4 4 3 3 3 3 3 2 2 2 3 3 3 4 4 4 3 3 5 4 3 2 2 2 1 1 2 2 2
3 7 6 4 4 5 2 5 8 5 4 3 3 4 5 5 6 6 6 6 5 5 4 3 3 4 3 3 3 3 3 2 2 3 3 3 3 4 5 4 3 3 2 1 1 1 1 1 2
5 3 5 6 2 2 5 7 8 2 1 1 2 3 6 6 7 7 6 6 5 5 5 4 4 4 3 3 3 3 3 2 3 4 3 3 3 4 4 4 4 3 2 1 0 1 1 1 2
4 8 5 5 3 2 6 5 5 5 5 4 4 6 7 6 5 6 5 6 5 5 4 3 3 4 3 3 3 2 3 3 3 3 4 4 4 4 4 4 4 3 3 1 0 1 1 1 1
4 4 5 4 5 5 3 8 7 7 7 7 8 7 7 7 7 6 6 5 4 3 3 3 3 3 3 3 2 3 3 3 3 3 4 4 4 4 4 4 4 3 3 2 1 1 1 1 1
4 7 8 5 4 4 3 10 6 6 6 6 8 7 6 6 6 6 5 4 4 4 4 4 3 3 3 3 2 2 3 3 3 4 4 4 4 4 4 4 4 3 3 2 2 1 1 1 1
Wind_Direction
135 97 83 56 51 51 355 300 284 318 16 23 46 74 88 78 87 123 297 103 132 140 173 198 197 193 191 196 206 209 215 222 226 222 220 220 214 208 205 205 206 205 203 201 201 204 180 146 107
110 95 60 54 72 56 309 296 301 294 146 123 52 62 74 69 56 59 5 96 118 141 163 194 204 203 206 214 225 234 240 246 247 244 239 235 232 226 222 223 222 223 221 221 224 230 229 237 255
115 85 93 78 99 182 223 271 333 41 103 88 65 49 71 58 31 53 104 121 114 125 144 207 218 224 230 247 251 258 264 267 266 262 255 249 244 240 235 234 234 234 232 233 234 235 238 243 251
98 64 68 88 186 240 219 243 168 106 76 56 87 70 58 13 354 126 115 114 118 116 106 312 256 266 264 273 285 289 291 291 288 282 273 265 259 253 248 245 244 244 242 241 238 236 239 243 250
68 84 73 54 270 276 274 269 236 135 69 57 89 98 62 357 54 103 114 108 119 112 55 349 314 312 304 297 294 294 299 304 304 301 295 286 278 271 263 257 254 252 250 247 245 241 240 244 247
73 79 91 213 261 279 266 241 122 92 100 109 112 119 133 353 90 115 121 121 131 134 94 2 339 339 334 320 315 316 314 310 309 309 309 306 300 289 280 272 265 262 258 254 249 244 243 244 246
117 111 157 208 252 285 211 156 135 127 128 150 138 124 160 237 151 125 115 116 118 120 75 8 349 348 341 332 327 328 325 327 324 316 313 312 314 305 294 290 285 278 268 260 254 249 249 246 246
129 103 97 229 208 248 205 143 134 135 137 116 131 147 190 197 146 114 99 84 79 65 37 0 351 359 354 341 337 341 339 339 336 332 328 327 325 319 306 298 292 288 282 270 260 254 254 252 249
103 85 217 221 198 232 196 141 106 92 111 96 143 175 177 138 126 116 98 63 55 47 18 5 1 2 355 341 359 358 353 351 348 343 340 344 342 329 312 305 298 291 290 287 276 266 260 259 255
111 157 222 208 189 206 208 165 157 126 119 132 98 97 113 126 139 146 155 166 174 239 340 8 4 1 357 352 3 352 352 348 343 333 335 337 329 317 316 315 316 312 309 306 294 280 267 259 253
159 194 222 204 190 184 174 157 151 143 194 201 183 167 148 147 156 169 181 180 189 196 293 360 359 1 3 349 347 350 347 344 341 343 341 338 336 327 327 322 325 328 325 319 309 297 268 243 232
165 230 207 208 159 165 169 156 165 193 220 200 175 161 157 165 179 187 188 185 175 170 211 288 356 11 357 355 347 347 344 338 338 336 342 350 346 341 330 322 317 317 309 302 294 280 269 250 230
191 232 248 276 135 171 143 191 214 238 237 144 144 151 167 178 188 194 181 173 170 184 221 261 301 352 343 354 339 356 334 325 321 331 339 349 342 332 332 325 324 318 311 298 293 280 269 258 234
197 127 340 333 292 150 145 249 224 247 152 144 156 173 181 186 187 174 170 179 189 201 221 249 266 307 356 351 330 321 324 325 329 334 335 342 332 321 329 328 325 317 308 294 281 271 260 253 236
90 67 357 272 193 182 118 278 238 228 148 164 178 184 185 194 186 185 186 188 195 200 222 260 232 5 348 337 331 336 325 334 336 331 334 339 334 321 317 316 311 303 304 302 295 293 264 245 241
75 69 297 265 181 167 152 256 258 180 162 186 194 194 191 200 200 199 190 193 194 186 211 282 325 0 340 338 328 325 331 339 329 325 328 331 330 326 317 312 302 302 310 316 294 285 287 263 257
64 178 242 275 194 161 183 248 277 160 173 196 201 200 198 206 214 206 195 197 191 186 204 274 331 343 338 337 334 331 335 336 325 325 324 323 328 329 314 298 294 307 321 326 311 323 255 257 270
201 206 230 240 204 171 210 253 271 180 191 207 205 202 204 210 218 202 193 190 176 174 201 295 344 345 341 341 343 342 342 334 330 327 323 322 321 325 314 292 298 312 321 327 328 301 278 248 256
168 180 233 252 194 178 225 258 271 205 203 215 212 206 213 219 220 191 183 169 155 164 197 287 315 325 350 351 340 332 322 319 326 326 330 330 325 322 313 303 304 303 279 275 291 299 287 273 314
157 195 245 285 167 184 250 276 277 212 211 213 209 208 209 203 195 192 185 174 179 193 220 249 261 295 314 291 272 260 274 291 290 305 321 327 330 325 313 304 294 283 272 291 281 213 280 279 115
193 202 213 214 45 47 351 314 305 305 248 221 204 198 196 195 197 196 192 195 193 211 218 223 238 268 299 319 335 341 345 337 339 333 328 326 326 322 313 297 281 272 241 247 247 204 179 231 281
223 225 193 160 105 304 56 289 294 303 300 246 215 198 201 202 194 194 195 200 207 219 221 227 243 270 293 323 358 357 344 319 299 301 305 315 323 322 321 314 291 270 251 249 252 212 188 171 212
194 68 101 99 124 11 360 194 286 322 273 257 229 212 207 203 196 198 201 206 212 214 216 229 255 279 297 313 314 332 309 283 293 304 317 324 325 326 327 322 313 291 264 254 251 237 202 183 185
129 74 58 51 70 327 245 177 278 247 231 250 224 207 204 199 197 201 203 200 216 219 226 234 254 276 295 311 306 290 297 307 319 325 328 326 322 321 330 325 321 301 274 252 241 227 208 199 190
94 89 35 3 10 261 275 204 252 258 241 229 221 211 202 193 189 195 200 206 217 224 234 238 246 269 288 300 297 290 288 294 300 306 312 318 321 317 320 326 319 307 284 259 229 215 216 199 193
147 136 155 192 227 281 312 241 256 263 273 238 213 193 186 192 197 205 209 208 216 228 234 233 242 262 279 287 292 293 293 288 290 295 298 301 298 298 305 315 312 309 302 286 242 217 220 202 208
128 147 156 128 157 291 288 289 301 259 265 180 173 176 201 206 206 211 212 211 218 227 230 227 233 254 270 277 289 295 301 298 302 306 302 298 301 306 317 325 329 327 327 304 218 215 227 216 215
129 140 103 111 141 274 299 286 260 260 245 234 218 217 223 217 214 214 211 213 219 225 231 228 229 242 258 273 280 290 294 298 304 313 315 315 315 319 326 334 337 337 342 347 335 232 239 229 241
118 103 104 108 144 155 268 276 232 227 224 220 227 225 220 213 212 211 212 213 216 221 222 226 235 244 260 269 278 298 303 309 317 319 317 317 320 327 331 334 336 339 343 348 353 303 261 248 259
173 165 148 150 199 170 182 267 264 242 238 223 232 232 222 213 210 206 206 205 210 218 221 224 231 239 250 258 271 287 301 317 326 324 323 325 327 331 331 334 341 342 344 345 341 316 312 264 263